Time,TemperatureF,DewpointF,PressureIn,WindDirection,WindDirectionDegrees,WindSpeedMPH,WindSpeedGustMPH,Humidity,HourlyPrecipIn,Conditions,Clouds,dailyrainin,SoftwareType,DateUTC
2014-02-19 00:43:00,20.0,-99.9,30.12,North,-999,-999.0,-999.0,-999,0.00,,,-99.99,,2014-02-19 05:43:00,
2014-02-19 00:52:00,20.0,-99.9,30.14,North,-999,-999.0,-999.0,-999,-99.99,,,-99.99,,2014-02-19 05:52:00,
2014-02-19 01:42:00,20.0,-99.9,30.14,North,-999,-999.0,-999.0,-999,-99.99,,,-99.99,,2014-02-19 06:42:00,
2014-02-19 01:52:00,19.0,-99.9,30.13,North,-999,-999.0,-999.0,-999,0.00,,,-99.99,,2014-02-19 06:52:00,
2014-02-19 02:42:00,19.0,-99.9,30.13,North,-999,-999.0,-999.0,-999,0.00,,,-99.99,,2014-02-19 07:42:00,
2014-02-19 02:52:00,19.0,-99.9,30.12,North,-999,-999.0,-999.0,-999,0.00,,,-99.99,,2014-02-19 07:52:00,
2014-02-19 03:42:00,19.0,-99.9,30.12,North,-999,-999.0,-999.0,-999,0.00,,,-99.99,,2014-02-19 08:42:00,
2014-02-19 03:52:00,19.0,-99.9,30.10,North,-999,-999.0,-999.0,-999,0.00,,,-99.99,,2014-02-19 08:52:00,
2014-02-19 04:43:00,19.0,-99.9,30.10,North,-999,-999.0,-999.0,-999,0.00,,,-99.99,,2014-02-19 09:43:00,
2014-02-19 04:52:00,19.0,-99.9,30.09,North,-999,-999.0,-999.0,-999,0.00,,,-99.99,,2014-02-19 09:52:00,
2014-02-19 05:43:00,19.0,-99.9,30.09,North,-999,-999.0,-999.0,-999,0.00,,,-99.99,,2014-02-19 10:43:00,
2014-02-19 05:52:00,18.0,-99.9,30.04,North,-999,-999.0,-999.0,-999,0.00,,,-99.99,,2014-02-19 10:52:00,
2014-02-19 06:42:00,18.0,-99.9,30.04,North,-999,-999.0,-999.0,-999,0.00,,,-99.99,,2014-02-19 11:42:00,
2014-02-19 06:52:00,17.0,-99.9,30.01,North,-999,-999.0,-999.0,-999,0.00,,,-99.99,,2014-02-19 11:52:00,
2014-02-19 07:42:00,17.0,-99.9,30.01,North,-999,-999.0,-999.0,-999,0.00,,,-99.99,,2014-02-19 12:42:00,
2014-02-19 07:52:00,20.0,-99.9,30.02,North,-999,-999.0,-999.0,-999,0.00,,,-99.99,,2014-02-19 12:52:00,
2014-02-19 08:42:00,20.0,-99.9,30.02,North,-999,-999.0,-999.0,-999,0.00,,,-99.99,,2014-02-19 13:42:00,
2014-02-19 08:52:00,30.0,-99.9,29.97,North,-999,-999.0,-999.0,-999,0.00,,,-99.99,,2014-02-19 13:52:00,
2014-02-19 09:42:00,30.0,-99.9,29.97,North,-999,-999.0,-999.0,-999,0.00,,,-99.99,,2014-02-19 14:42:00,
2014-02-19 09:52:00,35.0,-99.9,29.98,North,-999,-999.0,-999.0,-999,0.00,,,-99.99,,2014-02-19 14:52:00,
2014-02-19 10:44:00,35.0,-99.9,29.98,North,-999,-999.0,-999.0,-999,0.00,,,-99.99,,2014-02-19 15:44:00,
2014-02-19 10:52:00,34.0,-99.9,29.93,North,-999,-999.0,-999.0,-999,0.00,,,-99.99,,2014-02-19 15:52:00,
2014-02-19 11:44:00,34.0,-99.9,29.93,North,-999,-999.0,-999.0,-999,0.00,,,-99.99,,2014-02-19 16:44:00,
2014-02-19 11:52:00,33.0,-99.9,29.83,North,-999,-999.0,-999.0,-999,0.20,,,-99.99,,2014-02-19 16:52:00,
2014-02-19 12:44:00,33.0,-99.9,29.83,North,-999,-999.0,-999.0,-999,0.20,,,-99.99,,2014-02-19 17:44:00,
2014-02-19 12:52:00,34.0,-99.9,29.81,North,-999,-999.0,-999.0,-999,0.07,,,-99.99,,2014-02-19 17:52:00,
2014-02-19 13:42:00,34.0,-99.9,29.81,North,-999,-999.0,-999.0,-999,0.07,,,-99.99,,2014-02-19 18:42:00,
2014-02-19 13:52:00,35.0,-99.9,29.77,North,-999,-999.0,-999.0,-999,0.01,,,-99.99,,2014-02-19 18:52:00,
2014-02-19 14:42:00,35.0,-99.9,29.77,North,-999,-999.0,-999.0,-999,0.01,,,-99.99,,2014-02-19 19:42:00,
2014-02-19 14:52:00,38.0,-99.9,29.75,North,-999,-999.0,-999.0,-999,0.00,,,-99.99,,2014-02-19 19:52:00,
2014-02-19 15:42:00,38.0,-99.9,29.75,North,-999,-999.0,-999.0,-999,0.00,,,-99.99,,2014-02-19 20:42:00,
2014-02-19 15:52:00,38.0,-99.9,29.74,North,-999,-999.0,-999.0,-999,0.00,,,-99.99,,2014-02-19 20:52:00,
2014-02-19 16:43:00,38.0,-99.9,29.74,North,-999,-999.0,-999.0,-999,0.00,,,-99.99,,2014-02-19 21:43:00,
2014-02-19 16:52:00,38.0,-99.9,29.76,North,-999,-999.0,-999.0,-999,0.00,,,-99.99,,2014-02-19 21:52:00,
2014-02-19 17:43:00,38.0,-99.9,29.76,North,-999,-999.0,-999.0,-999,0.00,,,-99.99,,2014-02-19 22:43:00,
2014-02-19 17:52:00,36.0,-99.9,29.80,North,-999,-999.0,-999.0,-999,0.00,,,-99.99,,2014-02-19 22:52:00,
2014-02-19 18:43:00,36.0,-99.9,29.80,North,-999,-999.0,-999.0,-999,0.00,,,-99.99,,2014-02-19 23:43:00,
2014-02-19 18:52:00,35.0,-99.9,29.83,North,-999,-999.0,-999.0,-999,0.00,,,-99.99,,2014-02-19 23:52:00,
2014-02-19 19:42:00,35.0,-99.9,29.83,North,-999,-999.0,-999.0,-999,0.00,,,-99.99,,2014-02-20 00:42:00,
2014-02-19 19:52:00,33.0,-99.9,29.85,North,-999,-999.0,-999.0,-999,0.01,,,-99.99,,2014-02-20 00:52:00,
2014-02-19 20:42:00,33.0,-99.9,29.85,North,-999,-999.0,-999.0,-999,0.01,,,-99.99,,2014-02-20 01:42:00,
2014-02-19 20:52:00,38.0,-99.9,29.90,North,-999,-999.0,-999.0,-999,0.03,,,-99.99,,2014-02-20 01:52:00,
2014-02-19 21:52:00,38.0,-99.9,29.94,North,-999,-999.0,-999.0,-999,0.00,,,-99.99,,2014-02-20 02:52:00,
2014-02-19 22:43:00,38.0,-99.9,29.94,North,-999,-999.0,-999.0,-999,0.00,,,-99.99,,2014-02-20 03:43:00,
2014-02-19 22:52:00,41.0,-99.9,29.98,North,-999,-999.0,-999.0,-999,0.00,,,-99.99,,2014-02-20 03:52:00,
2014-02-19 23:43:00,41.0,-99.9,29.98,North,-999,-999.0,-999.0,-999,0.00,,,-99.99,,2014-02-20 04:43:00,
2014-02-19 23:52:00,41.0,-99.9,30.01,North,-999,-999.0,-999.0,-999,0.00,,,-99.99,,2014-02-20 04:52:00,